Погода в Большом Азясе

Россия / Республика Мордовия     54°10′19″N   43°40′48″E
темп.,
°C
ветер,
м/с
пор.,
м/с
влажн.,
%
обл.,
%
осадки,
мм/ч
давл.,
гПа
погр.,
м
27 октября, ср
ср2700:00+2зюз61467100 0.0 1023439
03:00+2юз61465100 0.0 1022432
06:00+2юз61463100 0.0 1021414
09:00+3юз61459100 0.0 1020493
12:00+6юз71452100 0.0 1019664
15:00+7юз81452100 0.0 1017900
18:00+6юз71553100 0.0 1016762
21:00+5зюз71458100 0.0 1015897
28 октября, чт
чт2800:00+6з71275100 0.0 1015931
03:00+6з51078100 0.0 1015768
06:00+6зюз51078100 0.0 1015397
09:00+6юз51077100 0.0 1015493
12:00+8юз61166100 0.0 1014849
15:00+8ююз61271100 0.3 10111219
18:00+6зюз51090100 0.8 1011702
21:00+6зсз3895100 1.5 1012564
29 октября, пт
пт2900:00+6с5990100 0.6 1016945
03:00+5с61085100 0.6 1020845
06:00+2ссв697950 0.0 1025666
09:00−1св58642 0.0 1029447
12:00+2св354334 0.0 1030632
15:00+3св22384 0.0 1032621
18:000юв11515 0.0 103310
21:000ю245571 0.0 103383
30 октября, сб
сб3000:00−1юз37595 0.0 1033149
03:00−1юз396149 0.0 1033184
06:000юз410645 0.0 1033202
09:00+3зюз5116975 0.0 1033299
12:00+6зюз5106665 0.0 1032416
15:00+7зюз510655 0.0 1032458
18:00+4зюз41179100 0.0 1032252
21:00+3зюз411835 0.0 1033224
31 октября, вс
вс3100:00+3юз411855 0.0 1033204
03:00+2зюз411835 0.0 1033207
06:00+2юз411825 0.0 1032204
09:00+4юз512696 0.0 1032315
12:00+8зюз6105011 0.0 1031429
15:00+9юз510495 0.0 1030482
18:00+5юз411615 0.0 1030239
21:00+4юз411665 0.0 1031207